Saint David, ME

9:11 AM EST on February 25, 2017 (GMT -0500)
Northern Aroostook Regional

Weather History for KFVE - February, 2014

Change the Weather History Date:

Wednesday, February 19, 2014

  Actual Average Record
Temperature  
Mean Temperature 19 °F 14 °F  
Max Temperature 27 °F 23 °F 34 °F (2008)
Min Temperature 11 °F 6 °F -9 °F (2006)
Degree Days  
Heating Degree Days 46    
Month to date heating degree days 1047  
Since 1 July heating degree days 6481  
Cooling Degree Days 0    
Month to date cooling degree days 0  
Year to date cooling degree days 0  
Moisture  
Dew Point 20 °F    
Average Humidity 91    
Maximum Humidity 100    
Minimum Humidity 75    
Precipitation  
Precipitation 0.07 in 0.03 in 0.15 in (2009)
Month to date precipitation 0.54 0.44  
Year to date precipitation 2.54 2.20  
Sea Level Pressure  
Sea Level Pressure 29.83 in    
Wind  
Wind Speed 8 mph (SSE)    
Max Wind Speed 18 mph    
Max Gust Speed 25 mph    
Visibility 5 miles    
Events Snow    
T = Trace of Precipitation, MM = Missing Value Source: NWS Daily Summary

Daily Weather History Graph

Daily Weather History Graph

Search for Another Location

Airport or City:

Trip Planner

Search our weather history database for the weather conditions in past years. The results will help you decide how hot, cold, wet, or windy it might be!

Date:

Astronomy

Feb. 19, 2014 Rise Set
Actual Time 6:31 AM EST 5:03 PM EST
Civil Twilight 6:00 AM EST 5:34 PM EST
Nautical Twilight 5:24 AM EST 6:10 PM EST
Astronomical Twilight 4:49 AM EST 6:45 PM EST
Moon 10:15 PM EST (2/19) 8:15 AM EST (2/19)
Length of Visible Light 11h 34m
Length of Day
10h 31m
Waning Gibbous, 80% of the Moon is Illuminated
Feb 19
Waning Gibbous
Feb 22
Last Quarter
Mar 1
New
Mar 8
First Quarter
Mar 16
Full

Hourly Weather History & Observations

Time (EST) Temp. Windchill Dew Point Humidity Pressure Visibility Wind Dir Wind Speed Gust Speed Precip Events Conditions
12:53 AM 15.1 °F 7.7 °F 10.9 °F 84% 30.01 in 10.0 mi East 4.6 mph - N/A   Overcast
1:53 AM 15.1 °F 6.4 °F 10.0 °F 80% 30.00 in 10.0 mi East 5.8 mph - N/A   Overcast
2:26 AM 15.1 °F - 10.9 °F 84% 29.94 in 10.0 mi Calm Calm - N/A   Overcast
2:53 AM 15.1 °F - 10.9 °F 84% 30.00 in 10.0 mi Calm Calm - N/A   Overcast
3:12 AM 15.1 °F - 10.9 °F 84% 29.94 in 10.0 mi Calm Calm - N/A   Overcast
3:53 AM 14.0 °F 8.2 °F 10.0 °F 84% 29.98 in 10.0 mi East 3.5 mph - N/A   Overcast
4:53 AM 14.0 °F 8.2 °F 10.9 °F 88% 29.99 in 10.0 mi ESE 3.5 mph - N/A   Scattered Clouds
5:53 AM 12.9 °F 5.2 °F 10.9 °F 92% 29.99 in 10.0 mi SE 4.6 mph - N/A   Scattered Clouds
6:53 AM 10.9 °F 1.4 °F 9.0 °F 92% 29.99 in 10.0 mi ESE 5.8 mph - N/A   Partly Cloudy
7:07 AM 10.9 °F 0.2 °F 9.0 °F 92% 29.94 in 10.0 mi SE 6.9 mph - N/A   Mostly Cloudy
7:53 AM 14.0 °F 3.9 °F 10.9 °F 88% 29.98 in 10.0 mi ESE 6.9 mph - N/A   Overcast
8:45 AM 12.9 °F 5.2 °F 10.9 °F 92% 29.94 in 10.0 mi SSE 4.6 mph - N/A   Overcast
8:53 AM 12.9 °F 6.9 °F 10.9 °F 92% 29.99 in 10.0 mi SE 3.5 mph - N/A   Overcast
9:03 AM 14.0 °F 6.5 °F 10.9 °F 88% 29.93 in 10.0 mi SE 4.6 mph - N/A   Overcast
9:29 AM 16.0 °F 8.8 °F 12.9 °F 88% 29.92 in 10.0 mi SE 4.6 mph - N/A   Overcast
9:43 AM 16.0 °F 8.8 °F 12.9 °F 88% 29.93 in 10.0 mi South 4.6 mph - N/A   Overcast
9:51 AM 15.8 °F 7.2 °F 14.0 °F 93% 29.92 in 10.0 mi SSE 5.8 mph - N/A   Overcast
9:53 AM 16.0 °F 7.4 °F 14.0 °F 92% 29.98 in 10.0 mi SSE 5.8 mph - N/A   Overcast
10:53 AM 19.0 °F 13.9 °F 16.0 °F 88% 29.96 in 10.0 mi SSE 3.5 mph - N/A   Partly Cloudy
11:53 AM 21.9 °F 13.4 °F 16.0 °F 78% 29.93 in 10.0 mi South 6.9 mph - N/A   Clear
12:53 PM 24.1 °F 17.0 °F 17.1 °F 75% 29.91 in 10.0 mi SSE 5.8 mph - N/A   Partly Cloudy
1:53 PM 25.0 °F 15.5 °F 18.0 °F 75% 29.88 in 10.0 mi SSE 9.2 mph - N/A   Overcast
2:53 PM 27.0 °F 15.6 °F 19.9 °F 75% 29.83 in 10.0 mi SE 13.8 mph - N/A   Mostly Cloudy
3:53 PM 26.1 °F 14.0 °F 19.0 °F 75% 29.83 in 10.0 mi SSE 15.0 mph - N/A   Partly Cloudy
4:53 PM 27.0 °F 15.2 °F 19.9 °F 75% 29.82 in 10.0 mi SE 15.0 mph - N/A   Clear
5:53 PM 27.0 °F 15.6 °F 21.9 °F 81% 29.82 in 9.0 mi SE 13.8 mph - 0.00 in Snow Light Snow
6:11 PM 27.0 °F 14.3 °F 23.0 °F 85% 29.78 in 1.8 mi SSE 17.3 mph 24.2 mph 0.00 in Snow Light Snow
6:15 PM 27.0 °F 15.6 °F 24.1 °F 89% 29.78 in 1.2 mi SSE 13.8 mph 24.2 mph 0.00 in Snow Light Snow
6:25 PM 26.1 °F 13.6 °F 25.0 °F 96% 29.77 in 1.0 mi SSE 16.1 mph 24.2 mph 0.00 in Snow Light Snow
6:38 PM 26.1 °F 15.0 °F 25.0 °F 96% 29.77 in 1.2 mi SSE 12.7 mph - 0.00 in Snow Light Snow
6:45 PM 26.1 °F 15.6 °F 25.0 °F 96% 29.76 in 1.5 mi SSE 11.5 mph - 0.00 in Snow Light Snow
6:53 PM 26.1 °F 16.2 °F 25.0 °F 96% 29.81 in 1.0 mi SSE 10.4 mph - 0.00 in Snow Light Snow
7:53 PM 27.0 °F 17.3 °F 26.1 °F 96% 29.80 in 1.0 mi SSE 10.4 mph - 0.02 in Snow Light Snow
8:00 PM 27.0 °F 18.0 °F 26.1 °F 96% 29.75 in 0.8 mi SSE 9.2 mph - 0.00 in Snow Light Snow
8:09 PM 27.0 °F 17.3 °F 26.1 °F 96% 29.75 in 1.2 mi SSE 10.4 mph - 0.00 in Snow Light Snow
8:12 PM 27.0 °F 18.0 °F 26.1 °F 96% 29.75 in 1.5 mi SSE 9.2 mph - 0.00 in Snow Light Snow
8:20 PM 27.0 °F 17.3 °F 26.1 °F 96% 29.75 in 1.8 mi SSE 10.4 mph - 0.00 in Snow Light Snow
8:25 PM 27.0 °F 18.0 °F 26.1 °F 96% 29.75 in 3.0 mi SSE 9.2 mph - 0.00 in Snow Light Snow
8:39 PM 27.0 °F 17.3 °F 26.1 °F 96% 29.74 in 2.0 mi SSE 10.4 mph - 0.01 in Snow Light Snow
8:53 PM 27.0 °F 18.0 °F 26.1 °F 96% 29.79 in 1.5 mi SSE 9.2 mph - 0.01 in Snow Light Snow
9:06 PM 27.0 °F 19.5 °F 26.1 °F 96% 29.74 in 1.8 mi SSE 6.9 mph - 0.00 in Snow Light Snow
9:18 PM 27.0 °F 18.7 °F 27.0 °F 100% 29.73 in 1.5 mi SSE 8.1 mph - 0.01 in Snow Light Snow
9:34 PM 27.0 °F 18.0 °F 27.0 °F 100% 29.73 in 1.2 mi SSE 9.2 mph - 0.01 in Snow Light Snow
9:48 PM 26.6 °F 18.2 °F 26.6 °F 100% 29.72 in 0.8 mi SSE 8.1 mph - 0.01 in Snow Light Snow
9:53 PM 27.0 °F 19.5 °F 27.0 °F 100% 29.76 in 0.8 mi SSE 6.9 mph - 0.01 in Snow Light Snow
10:08 PM 27.0 °F 19.5 °F 27.0 °F 100% 29.72 in 1.0 mi SSE 6.9 mph - 0.01 in Snow Light Snow
10:35 PM 27.0 °F 19.5 °F 26.1 °F 96% 29.72 in 1.5 mi SSE 6.9 mph - 0.02 in Snow Light Snow
10:49 PM 26.6 °F 18.2 °F 26.6 °F 100% 29.71 in 1.2 mi SSE 8.1 mph - 0.02 in Snow Light Snow
10:53 PM 27.0 °F 18.7 °F 26.1 °F 96% 29.75 in 1.5 mi SSE 8.1 mph - 0.02 in Snow Light Snow
11:00 PM 27.0 °F 20.5 °F 26.1 °F 96% 29.71 in 2.0 mi SSE 5.8 mph - 0.00 in Snow Light Snow
11:16 PM 27.0 °F 20.5 °F 26.1 °F 96% 29.70 in 1.5 mi SSE 5.8 mph - 0.00 in Snow Light Snow
11:23 PM 27.0 °F 21.6 °F 26.1 °F 96% 29.70 in 1.2 mi SSE 4.6 mph - 0.00 in Snow Light Snow
11:26 PM 27.0 °F 19.5 °F 26.1 °F 96% 29.70 in 2.0 mi SSE 6.9 mph - 0.00 in Snow Light Snow
11:28 PM 27.0 °F 20.5 °F 26.1 °F 96% 29.70 in 3.0 mi SSE 5.8 mph - 0.00 in Snow Light Snow
11:44 PM 27.0 °F 19.5 °F 26.1 °F 96% 29.70 in 2.0 mi SSE 6.9 mph - 0.00 in Snow Light Snow
11:53 PM 27.0 °F 20.5 °F 26.1 °F 96% 29.74 in 2.0 mi SSE 5.8 mph - 0.00 in Snow Light Snow